Location: Владивосток
(43.1151°N, 131.8856°E)
Time: 12:12:18
(UTC+10:00)

VELOX 1 - Pass Details

Date: 05 July 2022
Orbit: 624 x 639 km, 98.4° (Epoch: 08 August)

Event Time Altitude Azimuth Distance (km) Brightness Sun altitude
Rises 04:26:53 0° 122° (ESE) 2,925 ? -10.9°
Reaches altitude 10° 04:29:43 10° 102° (ESE) 2,025 ? -10.6°
Maximum altitude 04:32:32 17° 63° (ENE) 1,622 ? -10.2°
Drops below altitude 10° 04:35:21 10° 23° (NNE) 2,038 ? -9.8°
Sets 04:38:13 0° 3° (N) 2,954 ? -9.5°
